This is the latest recevied weather packets stored in our database for station/object BAGASKAR. If no packets are shown the sender has not sent any weather packets the latest 10 day(s).
| Time | Temp. | Humidity | Pressure | Rain* | Wind** | Luminosity | Snow |
|---|---|---|---|---|---|---|---|
| 1777699622 | 6.11° C | 100% | 1011.9 hPa | - | - | - | - |
| 1777698422 | 5.56° C | 100% | 1012.1 hPa | - | - | - | - |
| 1777697222 | 5.56° C | 100% | 1012.1 hPa | - | - | - | - |
| 1777696022 | 5.56° C | 100% | 1012.2 hPa | - | - | - | - |
| 1777694822 | 5° C | 100% | 1012.3 hPa | - | - | - | - |
| 1777693622 | 4.44° C | 100% | 1012.1 hPa | - | - | - | - |
| 1777692422 | 4.44° C | 100% | 1012.3 hPa | - | - | - | - |
| 1777691222 | 3.89° C | 100% | 1012.3 hPa | - | - | - | - |
| 1777690022 | 4.44° C | 100% | 1012.5 hPa | - | - | - | - |
| 1777688822 | 3.89° C | 100% | 1012.6 hPa | - | - | - | - |
| 1777687622 | 3.89° C | 100% | 1012.7 hPa | - | - | - | - |
| 1777686422 | 3.89° C | 100% | 1012.9 hPa | - | - | - | - |
| 1777685222 | 3.89° C | 100% | 1013.1 hPa | - | - | - | - |
| 1777684022 | 4.44° C | 100% | 1013.1 hPa | - | - | - | - |
| 1777682822 | 4.44° C | 100% | 1013.3 hPa | - | - | - | - |
| 1777681622 | 4.44° C | 100% | 1013.6 hPa | - | - | - | - |
| 1777680421 | 4.44° C | 100% | 1013.9 hPa | - | - | - | - |
| 1777679222 | 5° C | 100% | 1014 hPa | - | - | - | - |
| 1777678021 | 5° C | 100% | 1014.1 hPa | - | - | - | - |
| 1777676821 | 5° C | 100% | 1014.4 hPa | - | - | - | - |
| 1777675621 | 4.44° C | 100% | 1014.5 hPa | - | - | - | - |
| 1777674422 | 5° C | 100% | 1014.6 hPa | - | - | - | - |
| 1777673221 | 5° C | 100% | 1014.8 hPa | - | - | - | - |
| 1777672021 | 5° C | 100% | 1015.1 hPa | - | - | - | - |
| 1777670821 | 5° C | 100% | 1015.1 hPa | - | - | - | - |
* Rain since midnight (hover to see other rain measurements)
** Current wind speed in m/s (hover to see current wind gust speed)